Regional Weather Roundup
Issued by NWS Boston, MA

Current Version | Previous Version | Text Only | Print | Product List | Glossary Off
Versions: 1 2 3 4 5 6 7 8 9 10 11 12 13 14 15 16 17 18 19 20 21 22 23 24 25 26 27 28 29 30 31 32 33 34 35 36 37 38 39 40 41 42 43 44 45 46 47 48 49 50
284 ASUS41 KBOX 181910 RWRBOX REGIONAL WEATHER ROUNDUP NATIONAL WEATHER SERVICE BOSTON/NORTON MA 200 PM EST FRI JAN 18 2019 NOTE: "FAIR" INDICATES FEW OR NO CLOUDS BELOW 12,000 FEET WITH NO SIGNIFICANT WEATHER AND/OR OBSTRUCTIONS TO VISIBILITY. MAZALL-182000- EASTERN MASSACHUSETTS CITY SKY/WX TMP DP RH WIND PRES REMARKS BOSTON PTSUNNY 40 29 64 SE5 30.03F BEVERLY PTSUNNY 39 29 67 S10 30.02F LAWRENCE CLOUDY 38 24 57 SW6 30.04F BEDFORD FAIR 39 24 55 SW6 30.02F BLUE HILL N/A 37 27 67 CALM 29.99F NORWOOD FAIR 43 28 55 VRB6 30.02F MARSHFIELD PTSUNNY 39 32 75 SE9 30.03F PLYMOUTH PTSUNNY 38 30 73 S3 30.03F TAUNTON PTSUNNY 42 31 64 SE6 30.03F NEW BEDFORD CLOUDY 38 33 82 SE3 30.03F $$ MAZALL-182000- CAPE COD AND THE ISLANDS CITY SKY/WX TMP DP RH WIND PRES REMARKS FALMOUTH CLOUDY 39 32 75 E5 30.02F HYANNIS CLOUDY 39 33 79 E3 30.01F CHATHAM CLOUDY 38 34 85 E5 30.04F PROVINCETOWN FAIR 40 33 76 S9 30.03F NANTUCKET CLOUDY 40 37 89 NE10 30.02F MARTHAS VNYRD CLOUDY 36 36 100 E8 30.02F WCI 30 $$ MAZALL-182000- CENTRAL AND WESTERN MASSACHUSETTS CITY SKY/WX TMP DP RH WIND PRES REMARKS WORCESTER CLOUDY 33 26 75 SW7 29.98F WCI 27 FITCHBURG CLOUDY 35 25 66 SE6 30.02F WCI 30 ORANGE CLOUDY 34 24 67 S6 30.00F WCI 29 SPRINGFIELD CLOUDY 33 21 60 SW3 30.01F WESTFIELD CLOUDY 36 23 59 S7 30.00F WCI 30 NORTH ADAMS CLOUDY 31 26 82 VRB5 29.98F WCI 26 PITTSFIELD CLOUDY 31 25 78 VRB5 29.94F WCI 26 $$ RIZALL-182000- RHODE ISLAND CITY SKY/WX TMP DP RH WIND PRES REMARKS PROVIDENCE PTSUNNY 38 31 76 S7 30.04F NEWPORT CLOUDY 38 32 79 S5 30.03F BLOCK ISLAND PTSUNNY 40 34 79 NE7 30.03F SMITHFIELD PTSUNNY 38 28 67 W7 30.02F WESTERLY FAIR 43 35 73 SE6 30.04S $$ CTZALL-182000- CONNECTICUT CITY SKY/WX TMP DP RH WIND PRES REMARKS BRADLEY INTL PTSUNNY 36 26 67 S8 30.03F WCI 30 HARTFORD CLOUDY 37 27 67 VRB5 30.05S BRIDGEPORT FAIR 36 31 82 SW7 30.06F WCI 30 DANBURY CLOUDY 38 28 67 VRB3 30.03F GROTON CLOUDY 41 35 79 SE5 30.03S NEW HAVEN FAIR 39 32 76 SW6 30.05F CHESTER CLOUDY 39 32 75 CALM 30.03S MERIDEN CLOUDY 38 30 73 VRB6 30.04F WILLIMANTIC CLOUDY 37 30 75 CALM 30.04F OXFORD CLOUDY 35 29 78 SW3 30.02S $$ MEZ002-015-021-024-NHZ003-005-008-011-012-014-VTZ005-008-182000- NORTHERN NEW ENGLAND CITY SKY/WX TMP DP RH WIND PRES REMARKS PORTLAND ME CLOUDY 30 15 53 CALM 30.03F BANGOR ME LGT SNOW 29 27 92 S8 30.02F VSB 3/4 WCI 21 CONCORD NH CLOUDY 30 21 69 S7 30.01F WCI 23 MANCHESTER NH PTSUNNY 33 19 56 SW5 30.01F WCI 29 NASHUA NH PTSUNNY 35 23 61 VRB5 30.02F WCI 31 PORTSMOUTH NH PTSUNNY 37 22 56 SW6 30.00F WCI 32 JAFFREY NH CLOUDY 32 26 78 S7 29.96F WCI 26 KEENE NH MIX PCPN 31 22 69 W3 29.99F BURLINGTON VT CLOUDY 30 22 72 S13G22 29.93F WCI 20 MT. WASHINGTON SNOWSHWR 10 10 100 SW46G53 N/A VSB 1/16WCI -16 $$ NYZ052-076-182000- EASTERN NEW YORK CITY SKY/WX TMP DP RH WIND PRES REMARKS ALBANY FLURRIES 32 25 75 S12 30.00F WCI 23 NEW YORK CITY CLOUDY 37 32 82 E6 30.05F $$ ANZALL-182000- MARINE OBSERVATIONS STATION/POSITION TIME TEMP WIND PRES VSBY WAVE AIR SEA DIR/SP/G HT/PER (UTC) (F) (DEG/KT/KT) (MB) (MI) (FT/S) BOSTON BUOY 1850 37 42 150/ 12/ 14 1016.7F 2/ 4 BUZZARDS BAY 1800 35 50/ 7/ 8 1018.0F NANTUCKET SOUND 1850 36 36 60/ 6/ 8 1017.0F 1/ 6 MASS BAY-STELLWA 1804 37 42 170/ 12/ 14 1016.3F 1 7/8 2/ 5 ISLE OF SHOALS 1800 36 180/ 12/ 14 1016.9F S OF BLOCK IS 1830 45 N/A 4/ 6 $$ ......................KEY......................... SKY/WX - SKY CONDITION/PRESENT WEATHER TMP - TEMPERATURE IN FAHRENHEIT DWPT - DEWPOINT IN FAHRENHEIT RH - RELATIVE HUMIDITY IN PERCENT WIND - DIRECTION AND SPEED IN MPH PRES - MEAN SEA LEVEL PRESSURE IN INCHES OF HG WCI - WIND CHILL INDEX VSB - VISIBILITY IN MILES HX - HEAT INDEX TC - TEMPERATURE IN CELSIUS VRB - VARIABLE WIND DIRECTION N/A - NOT AVAILABLE

USA.gov is the U.S. government's official web portal to all federal, state and local government web resources and services.